Regional Weather Roundup
Issued by NWS

Home | Current Version | Previous Version | Graphics & Text | Print | Product List | Glossary Off
Versions: 1 2 3 4 5 6 7 8 9 10 11 12 13 14 15 16 17 18 19 20 21 22 23 24 25 26 27 28 29 30 31 32 33 34 35 36 37 38 39 40 41 42 43 44 45 46 47 48 49 50

000
ASUS43 KDMX 252306
RWRIA

WEATHER ROUNDUP FOR IOWA
NATIONAL WEATHER SERVICE DES MOINES IA
500 PM CST SUN FEB 25 2018

NOTE: "FAIR" INDICATES FEW OR NO CLOUDS BELOW 12,000 FEET WITH NO
SIGNIFICANT WEATHER AND/OR OBSTRUCTIONS TO VISIBILITY.

* - THESE STATIONS ARE NOT NWS STATIONS...THUS NOT UNDER NWS
QUALITY CONTROL.  THEY ALSO DO NOT REPORT WEATHER SUCH
AS PRECIPITATION OR FOG.

IAZ001>003-012>014-020>022-031>034-043>046-260000-
   NORTHWEST IOWA

CITY           SKY/WX    TMP DP  RH WIND       PRES   REMARKS
CARROLL *      SUNNY     36  27  69 SW10      30.00R WCI  28
CHEROKEE *     SUNNY     33  23  67 SW8       29.97R WCI  26
DENISON *      SUNNY     36  23  60 SW9       30.01R WCI  29
LE MARS *      SUNNY     36  21  55 SW7       29.96R WCI  30
ORANGE CITY *  SUNNY     30  27  86 SW6       29.95R WCI  24
SHELDON *      SUNNY     28  21  74 SW10      29.93R WCI  19
SIOUX CITY     SUNNY     33  22  63 SW8       29.98R WCI  26
SPENCER        SUNNY     30  20  66 W13       29.94R WCI  20
STORM LAKE *   SUNNY     32  23  69 W10       29.96R WCI  24
$$

IAZ055>058-069>071-079>083-090>094-260000-
   SOUTHWEST IOWA

CITY           SKY/WX    TMP DP  RH WIND       PRES   REMARKS
ATLANTIC *     MOSUNNY   39  28  65 SW9       30.02R WCI  33
AUDUBON *      SUNNY     37  27  65 SW3       30.02R
CLARINDA *     MOSUNNY   43  32  65 SW7       30.05S
COUNCIL BLFS * SUNNY     41  32  70 SW9       30.00R
CRESTON *      MOSUNNY   41  30  65 SW8       30.03R
LAMONI         CLOUDY    43  25  49 SW10      30.03R
RED OAK *      CLOUDY    41  32  70 SW6       30.03R
SHENANDOAH *   CLOUDY    43  32  65 SW6       30.03S
$$

IAZ047>049-059>061-072>074-084-260000-
   CENTRAL IOWA

CITY           SKY/WX    TMP DP  RH WIND       PRES   REMARKS
AMES           CLEAR     39  26  59 W9        30.02R WCI  33
ANKENY *       CLEAR     41  27  56 W12       30.03R
BOONE *        CLEAR     37  23  56 W13       30.00R WCI  29
CHARITON *     CLOUDY    45  27  49 SW9       30.03R
DES MOINES     PTSUNNY   43  28  55 W9        30.02R
GRINNELL*      PTCLDY    40  27  59 SW8       30.03R WCI  35
KNOXVILLE *    PTCLDY    43  25  49 W10G20    30.01R
MARSHALLTOWN   PTCLDY    38  28  67 W12       30.01R WCI  30
NEWTON *       PTCLDY    41  28  60 W10       30.02R
PELLA *        PTCLDY    44  25  48 W9        30.04R
PERRY *        FAIR      38  30  71 SW9       30.02R WCI  32
$$

IAZ004>006-015-016-023>025-035-036-260000-
   NORTH CENTRAL IOWA

CITY           SKY/WX    TMP DP  RH WIND       PRES   REMARKS
ALGONA *       CLEAR     28 N/A N/A W10       29.96S WCI  19
CLARION *      CLEAR     30  28  93 SW9       29.99R WCI  22
ESTHERVILLE    SUNNY     26  19  74 W12       29.93R WCI  16
FORT DODGE *   SUNNY     33  24  69 SW12      29.99R WCI  24
MASON CITY     CLEAR     29  22  75 SW13      29.97R WCI  19
FOREST CITY *  FAIR      30  25  80 W5        29.95R WCI  25
WEBSTER CITY * CLEAR     34  25  69 SW15      29.97R WCI  24
IOWA FALLS *   FAIR      35  28  77 W12       30.01R WCI  26
$$

IAZ007>011-017>019-026>030-037>042-050>054-066-260000-
   NORTHEAST IOWA

CITY           SKY/WX    TMP DP  RH WIND       PRES   REMARKS
CEDAR RAPIDS   FAIR      40  25  55 W15       30.00R WCI  32
CHARLES CITY * FAIR      30  27  86 W16       29.97R WCI  19
CLINTON *      FAIR      41  28  60 W21       30.02R
DECORAH *      FAIR      30  23  74 W10G22    29.94R WCI  21
DUBUQUE        FAIR      36  26  67 W20       29.97R WCI  25
MONTICELLO *   FAIR      39  27  60 W14G20    30.00R WCI  31
OELWEIN *      FAIR      34  30  86 W16       29.99R WCI  23
WATERLOO       FAIR      34  26  72 W12G20    30.00R WCI  25
$$

IAZ064-065-067-068-078-260000-
   EAST CENTRAL IOWA

CITY           SKY/WX    TMP DP  RH WIND       PRES   REMARKS
DAVENPORT      FAIR      44  28  53 W14       30.04R
IOWA CITY      FAIR      43  26  51 W10       30.04R
MT. PLEASANT * CLEAR     45  21  39 W14       30.05R
MUSCATINE *    FAIR      45  25  45 W10G18    30.05R
QUAD CITIES    FAIR      45  23  42 W15       30.02R
$$

IAZ062-063-075>077-085>089-095>099-260000-
   SOUTHEAST IOWA

CITY           SKY/WX    TMP DP  RH WIND       PRES   REMARKS
BURLINGTON     CLEAR     47  23  38 W8        30.05R
FAIRFIELD *    PTCLDY    45  23  42 W12       30.03S
FORT MADISON * CLEAR     48  25  40 SW13      30.06R
KEOKUK *       CLEAR     48  25  40 SW12G18   30.06R
OSKALOOSA *    FAIR      42  30  63 W7        30.03R
OTTUMWA        CLOUDY    44  25  47 SW10      30.03R
WASHINGTON *   PTCLDY    45  27  49 W10       30.05R
$$

ABBREVIATIONS USED IN REMARKS
   TC - TEMPERATURES IN CELSIUS
  WCI - WIND CHILL INDEX
   HX - HEAT INDEX
  VSB - VISIBILITY
$$





USA.gov is the U.S. government's official web portal to all federal, state and local government web resources and services.